Weather reports worldwide

Advertisment
Calatayud, Spain (8156): temperature & dewpoint: 08.07.2020 13:00:00 - 14.07.2020 13:00:00 (CEST)Calatayud, Spain (8156): wind speed & gusts: 08.07.2020 13:00:00 - 14.07.2020 13:00:00 (CEST)Calatayud, Spain (8156): wind direction: 08.07.2020 13:00:00 - 14.07.2020 13:00:00 (CEST)Calatayud, Spain (8156): reduced air pressure: 08.07.2020 13:00:00 - 14.07.2020 13:00:00 (CEST)Calatayud, Spain (8156): visibility: 08.07.2020 13:00:00 - 14.07.2020 13:00:00 (CEST)Calatayud, Spain (8156): sunshine duration: 08.07.2020 13:00:00 - 14.07.2020 13:00:00 (CEST)Calatayud, Spain (8156): precipitation: 08.07.2020 13:00:00 - 14.07.2020 13:00:00 (CEST)
Date & Time tt [°C] td [°C] ff [km/h] ff [kn] fx [km/h] fx [kn] dd ppp [hPa] vv [km] sd [min] rr [mm]
14.07.2020 13:00:00 - - - - - - - - - - -
14.07.2020 12:00:00 22,1 0,6 6 3 11 6 NE 1016,7 20 60 0,0
14.07.2020 11:00:00 19,8 1,7 3 2 8 5 NW 1017,8 20 60 0,0
14.07.2020 10:00:00 17,1 5,6 6 3 9 5 SW 1019,0 20 48 0,0
14.07.2020 09:00:00 14,9 7,1 3 1 5 3 WSW 1019,5 20 0 0,0
14.07.2020 08:00:00 14,3 6,8 1 1 6 3 WNW 1019,8 20 0 -
14.07.2020 07:00:00 13,8 6,1 4 2 9 5 NNE 1019,8 20 0 0,0
14.07.2020 06:00:00 14,2 5,8 2 1 8 4 NW 1019,6 20 0 0,0
14.07.2020 05:00:00 15,1 6,4 5 3 8 4 S 1019,3 20 0 0,0
14.07.2020 04:00:00 15,8 6,8 5 3 7 4 W 1019,3 20 0 0,0
14.07.2020 03:00:00 18,2 5,1 5 3 11 6 SSE 1019,1 20 0 0,0
14.07.2020 02:00:00 18,9 5,3 5 3 17 9 SE 1019,6 20 0 -
14.07.2020 01:00:00 20,1 3,8 14 8 20 11 ENE 1019,1 20 0 0,0
14.07.2020 00:00:00 20,5 4,1 6 3 25 13 ENE 1018,9 20 0 0,0
13.07.2020 23:00:00 21,6 4,6 20 11 35 19 ENE 1018,2 20 0 0,0
13.07.2020 22:00:00 23,1 5,9 21 12 40 22 ENE 1016,7 20 25 0,0
13.07.2020 21:00:00 25,9 7,4 25 14 43 23 NE 1015,3 20 60 0,0
13.07.2020 20:00:00 27,9 8,7 27 15 41 22 NE 1014,4 20 60 -
13.07.2020 19:00:00 29,8 8,8 22 12 38 20 NE 1013,9 20 60 0,0
13.07.2020 18:00:00 30,4 8,8 20 11 34 18 ENE 1013,9 20 60 0,0
13.07.2020 17:00:00 30,8 9,0 15 8 31 17 NE 1014,5 20 60 0,0
13.07.2020 16:00:00 30,9 9,2 14 8 30 16 E 1015,0 20 60 0,0
13.07.2020 15:00:00 29,9 8,9 14 8 29 16 ENE 1016,0 20 60 0,0
13.07.2020 14:00:00 28,6 10,8 10 6 27 14 E 1016,8 20 60 -
13.07.2020 13:00:00 27,8 11,8 10 6 20 11 NE 1017,4 20 60 0,0
13.07.2020 12:00:00 25,8 12,2 6 4 14 8 NNE 1018,4 20 60 0,0
13.07.2020 11:00:00 24,1 13,1 5 3 12 6 NNE 1019,0 20 60 0,0
13.07.2020 10:00:00 21,5 12,8 4 2 7 4 WNW 1019,9 20 60 0,0
13.07.2020 09:00:00 18,4 12,6 4 2 7 4 WSW 1020,4 20 60 0,0
13.07.2020 08:00:00 17,1 11,8 2 1 7 4 S 1020,5 20 23 -
13.07.2020 07:00:00 16,6 11,3 2 1 4 2 N 1020,2 20 0 0,0
13.07.2020 06:00:00 16,9 11,2 3 1 7 4 WSW 1019,6 20 0 0,0
13.07.2020 05:00:00 16,9 11,0 1 1 7 4 WSW 1019,5 20 0 0,0
13.07.2020 04:00:00 17,7 11,2 4 2 8 4 E 1019,4 20 0 0,0
13.07.2020 03:00:00 17,9 11,2 2 1 16 9 WNW 1019,8 20 0 0,0
13.07.2020 02:00:00 18,5 11,1 6 3 10 6 SSE 1019,8 20 0 -
13.07.2020 01:00:00 19,9 10,9 7 4 16 8 SSE 1019,0 20 0 0,0
13.07.2020 00:00:00 20,9 10,6 6 4 13 7 SSE 1017,9 20 0 0,0
12.07.2020 23:00:00 21,9 10,6 5 3 16 9 SSW 1017,3 20 0 0,0
12.07.2020 22:00:00 23,0 9,8 6 4 29 16 N 1016,7 20 0 0,0
12.07.2020 21:00:00 24,1 8,9 14 7 48 26 WNW 1016,8 20 0 0,0
12.07.2020 20:00:00 26,7 13,8 11 6 22 12 NNE 1014,5 20 0 -
12.07.2020 19:00:00 27,6 13,9 10 6 22 12 NNE 1013,9 20 0 0,0
12.07.2020 18:00:00 27,8 13,8 11 6 25 14 NNE 1014,2 20 44 0,0
12.07.2020 17:00:00 28,4 13,5 13 7 24 13 NNE 1014,5 20 54 0,0
12.07.2020 16:00:00 25,8 14,6 11 6 20 11 NNE 1014,7 20 12 0,0
12.07.2020 15:00:00 25,6 15,0 8 4 27 15 N 1015,6 20 60 0,0
12.07.2020 14:00:00 23,7 15,7 14 8 22 12 NE 1016,5 20 33 -
12.07.2020 13:00:00 21,4 15,7 6 3 29 16 NNW 1018,1 20 1 0,4
12.07.2020 12:00:00 20,1 15,5 16 8 30 16 ENE 1018,0 4,7 0 1,0
12.07.2020 11:00:00 22,0 13,4 7 4 23 13 NE 1018,8 20 0 0,0
12.07.2020 10:00:00 23,1 12,4 19 10 29 16 NE 1016,5 20 48 0,0
12.07.2020 09:00:00 20,0 13,9 5 3 13 7 W 1017,2 20 5 0,0
12.07.2020 08:00:00 18,3 13,0 5 3 9 5 S 1017,1 20 0 -
12.07.2020 07:00:00 18,8 12,5 4 2 6 3 W 1016,7 20 0 0,0
12.07.2020 06:00:00 19,6 12,3 4 2 9 5 SE 1015,8 20 0 0,0
12.07.2020 05:00:00 20,8 12,2 5 3 8 5 S 1015,2 20 0 0,0
12.07.2020 04:00:00 21,6 12,4 3 2 8 5 ENE 1015,4 20 0 0,0
12.07.2020 03:00:00 22,3 12,5 8 4 14 7 NNE 1015,0 20 0 0,0
12.07.2020 02:00:00 22,6 12,2 3 2 11 6 E 1015,0 20 0 -
12.07.2020 01:00:00 23,8 11,8 3 2 6 4 ESE 1015,2 20 0 0,0
12.07.2020 00:00:00 25,0 11,6 4 2 24 13 ESE 1014,8 20 0 0,0
11.07.2020 23:00:00 26,2 10,8 16 9 26 14 ENE 1014,2 20 0 0,0
11.07.2020 22:00:00 26,6 11,1 16 9 29 15 NE 1013,6 20 21 0,0
11.07.2020 21:00:00 28,2 10,9 19 10 28 15 NE 1013,0 20 60 0,0
11.07.2020 20:00:00 29,1 10,8 20 11 34 18 NE 1012,7 20 60 -
11.07.2020 19:00:00 29,8 10,9 18 10 38 21 NE 1012,6 20 60 0,0
11.07.2020 18:00:00 29,7 10,8 24 13 39 21 NE 1013,1 20 60 0,0
11.07.2020 17:00:00 29,7 10,8 23 13 37 20 NE 1013,3 20 60 0,0
11.07.2020 16:00:00 29,2 10,8 19 10 33 18 NNE 1013,9 20 60 0,0
11.07.2020 15:00:00 28,2 11,7 19 11 30 16 NE 1014,7 20 60 0,0
11.07.2020 14:00:00 27,4 11,4 19 10 29 16 NNE 1015,5 20 60 -
11.07.2020 13:00:00 25,9 12,0 16 9 25 14 N 1016,1 20 60 0,0
11.07.2020 12:00:00 23,7 12,6 10 6 20 11 N 1017,1 20 60 0,0
11.07.2020 11:00:00 21,5 12,3 7 4 15 8 N 1018,0 20 60 0,0
11.07.2020 10:00:00 20,2 12,4 5 3 11 6 N 1018,4 20 60 0,0
11.07.2020 09:00:00 18,7 12,4 3 1 11 6 E 1018,8 20 60 0,0
11.07.2020 08:00:00 16,1 12,1 8 4 12 7 S 1019,3 20 46 -
11.07.2020 07:00:00 15,9 12,1 3 1 10 5 E 1018,8 20 0 0,0
11.07.2020 06:00:00 16,5 12,0 5 3 12 6 SSE 1018,4 20 0 0,0
11.07.2020 05:00:00 17,1 12,4 5 3 16 8 SE 1017,8 20 0 0,0
11.07.2020 04:00:00 17,8 12,4 4 2 11 6 ESE 1017,5 20 0 0,0
11.07.2020 03:00:00 18,5 12,4 4 2 16 9 E 1017,7 20 0 0,0
11.07.2020 02:00:00 19,4 12,6 8 4 26 14 E 1017,4 20 0 -
11.07.2020 01:00:00 20,3 13,1 14 8 25 13 NE 1016,8 20 0 0,0
11.07.2020 00:00:00 20,7 13,2 17 9 32 17 ENE 1016,1 20 0 0,0
10.07.2020 23:00:00 21,9 13,0 18 10 35 19 NE 1015,1 20 0 0,0
10.07.2020 22:00:00 23,4 13,3 21 11 37 20 ENE 1013,9 20 10 0,0
10.07.2020 21:00:00 26,1 13,3 23 12 44 24 NE 1012,8 20 57 0,0
10.07.2020 20:00:00 28,2 13,0 19 11 41 22 NE 1011,9 20 27 -
10.07.2020 19:00:00 29,8 11,3 22 12 37 20 ENE 1010,8 20 60 0,0
10.07.2020 18:00:00 30,2 11,2 18 10 32 17 ENE 1010,9 20 60 0,0
10.07.2020 17:00:00 30,1 11,1 18 10 33 18 NE 1011,2 20 60 0,0
10.07.2020 16:00:00 30,0 12,0 18 10 32 17 NE 1011,5 20 60 0,0
10.07.2020 15:00:00 29,5 12,4 13 7 23 12 NNE 1012,4 20 60 0,0
10.07.2020 14:00:00 28,1 14,3 6 3 21 12 N 1013,2 20 60 -
10.07.2020 13:00:00 26,8 15,2 6 3 18 10 NNE 1013,7 20 60 0,0
10.07.2020 12:00:00 23,9 14,6 4 2 12 6 NNE 1014,6 20 60 0,0
10.07.2020 11:00:00 22,2 14,6 5 3 11 6 NE 1015,7 20 60 0,0
10.07.2020 10:00:00 19,5 15,0 3 2 8 5 W 1016,5 20 60 0,2
10.07.2020 09:00:00 17,0 13,6 3 2 8 4 SSW 1017,3 20 60 0,0
10.07.2020 08:00:00 15,0 13,1 4 2 9 5 SW 1017,6 20 45 -
10.07.2020 07:00:00 14,7 12,7 3 2 5 3 S 1017,2 20 0 0,0
10.07.2020 06:00:00 15,1 13,3 5 3 7 4 S 1017,2 19 0 0,0
10.07.2020 05:00:00 15,9 13,8 2 1 11 6 SSE 1017,0 20 0 0,0
10.07.2020 04:00:00 16,5 14,1 5 3 7 4 SSW 1016,9 20 0 0,0
10.07.2020 03:00:00 17,2 14,6 4 2 10 5 SW 1017,1 20 0 0,0
10.07.2020 02:00:00 17,7 14,6 5 3 9 5 NE 1017,1 20 0 -
10.07.2020 01:00:00 17,7 14,6 8 4 20 11 S 1017,1 20 0 0,0
10.07.2020 00:00:00 18,0 15,1 11 6 26 14 W 1015,9 20 0 0,4
09.07.2020 23:00:00 19,4 15,1 7 4 22 12 SE 1017,8 20 0 2,2
09.07.2020 22:00:00 20,5 13,9 10 5 25 14 S 1018,3 20 0 0,8
09.07.2020 21:00:00 23,9 11,2 17 9 36 19 W 1015,4 20 0 0,2
09.07.2020 20:00:00 27,4 9,3 15 8 30 16 W 1013,4 20 18 -
09.07.2020 19:00:00 29,9 9,4 11 6 18 10 W 1011,9 20 60 0,0
09.07.2020 18:00:00 27,1 13,5 4 2 24 13 SW 1013,3 20 10 0,0
09.07.2020 17:00:00 26,3 10,0 13 7 28 15 S 1014,4 20 0 0,0
09.07.2020 16:00:00 25,9 12,0 13 7 27 15 NNW 1014,4 20 0 0,0
09.07.2020 15:00:00 27,4 9,7 6 4 26 14 E 1014,0 20 0 0,0
09.07.2020 14:00:00 29,5 12,8 5 3 20 11 SE 1013,9 20 25 -
09.07.2020 13:00:00 30,4 11,3 7 4 22 12 ENE 1014,0 20 32 0,0
09.07.2020 12:00:00 29,4 11,4 8 4 16 9 ENE 1014,3 20 60 0,0
09.07.2020 11:00:00 26,9 11,8 3 2 9 5 W 1014,9 20 60 0,0
09.07.2020 10:00:00 24,1 12,4 6 3 12 6 S 1015,8 20 55 0,0
09.07.2020 09:00:00 22,6 11,3 6 3 19 11 SW 1016,2 20 42 0,0
09.07.2020 08:00:00 20,9 11,0 11 6 23 12 S 1015,6 20 2 -
09.07.2020 07:00:00 21,1 11,7 10 6 25 13 SSE 1013,6 20 0 1,2
09.07.2020 06:00:00 25,3 7,0 11 6 65 35 E 1012,7 20 0 0,0
09.07.2020 05:00:00 23,7 7,7 14 8 34 18 E 1015,0 20 0 0,0
09.07.2020 04:00:00 21,7 10,8 6 4 31 17 E 1014,7 20 0 0,0
09.07.2020 03:00:00 22,2 11,0 8 4 23 12 SSW 1014,1 20 0 0,0
09.07.2020 02:00:00 23,2 10,9 7 4 26 14 ENE 1014,1 20 0 -
09.07.2020 01:00:00 23,8 10,4 8 4 15 8 N 1014,5 20 0 0,0
09.07.2020 00:00:00 24,7 10,2 6 3 28 15 W 1013,4 20 0 0,0
08.07.2020 23:00:00 25,6 9,4 9 5 22 12 SSE 1012,8 20 0 0,0
08.07.2020 22:00:00 24,6 11,9 5 3 37 20 SW 1013,5 20 0 0,0
08.07.2020 21:00:00 26,3 10,4 22 12 39 21 SSE 1013,1 20 0 0,0
08.07.2020 20:00:00 26,7 8,7 21 11 44 24 E 1013,3 20 0 -
08.07.2020 19:00:00 23,0 13,2 19 10 76 41 NW 1016,2 20 0 1,6
08.07.2020 18:00:00 29,4 10,5 8 4 31 17 NW 1013,0 20 0 0,0
08.07.2020 17:00:00 32,8 9,6 18 10 29 16 NNE 1010,1 20 56 0,0
08.07.2020 16:00:00 31,3 10,6 17 9 33 18 NNE 1011,0 20 46 0,0
08.07.2020 15:00:00 29,7 9,3 17 9 34 19 NNE 1012,1 20 40 0,0
08.07.2020 14:00:00 28,8 9,6 22 12 33 18 NNE 1012,0 20 60 -
08.07.2020 13:00:00 26,8 9,7 7 4 41 22 WNW 1012,8 20 17 0,0

tt = temperature
td = dewpoint
ff = wind speed
fx = gusts
dd = wind direction
ppp = reduced air pressure
vv = visibility
sd = sunshine duration
rr = precipitation

Next stations